Regional Weather Roundup
Issued by NWS

Home | Current Version | Previous Version | Graphics & Text | Print | Product List | Glossary On
Versions: 1 2 3 4 5 6 7 8 9 10 11 12 13 14 15 16 17 18 19 20 21 22 23 24 25 26 27 28 29 30 31 32 33 34 35 36 37 38 39 40 41 42 43 44 45 46 47 48 49 50
000
ASUS45 KPSR 280300
RWRAZ

ARIZONA HOURLY REGIONAL WEATHER ROUNDUP
NATIONAL WEATHER SERVICE PHOENIX AZ
800 PM MST MON JUL 27 2015

NOTE: FAIR INDICATES FEW OR NO CLOUDS BELOW 12,000 FEET WITH NO
SIGNIFICANT WEATHER AND/OR OBSTRUCTIONS TO VISIBILITY.

AZZ001>003-036-280400-
NORTHWEST ARIZONA

CITY           SKY/WX    TMP DP  RH WIND       PRES   REMARKS
KINGMAN        CLEAR     84   6   5 SW10      29.93R
$$

AZZ004>008-015-016-018-280400-
NORTH CENTRAL ARIZONA

CITY           SKY/WX    TMP DP  RH WIND       PRES   REMARKS
GRAND CANYON   CLEAR     69  17  13 SW5       30.17R
WILLIAMS       CLEAR     72  32  23 SW6       30.26R
PRESCOTT       CLEAR     79  43  27 S6        30.07R
FLAGSTAFF      NOT AVBL
PAYSON         CLEAR     81  46  30 SW7       30.11R
PAGE           CLEAR     91  17   6 W8        29.92R
$$

AZZ009>014-017-280400-
NORTHEAST ARIZONA

CITY           SKY/WX    TMP DP  RH WIND       PRES   REMARKS
WINSLOW        NOT AVBL
SAINT JOHNS    CLEAR     79  41  25 SW7       30.08R
WINDOW ROCK    CLEAR     73  36  25 SW3       30.17R
SHOW LOW       CLEAR     72  39  30 SW8       30.18R
$$

AZZ023-280400-
GREATER PHOENIX AREA

CITY           SKY/WX    TMP DP  RH WIND       PRES   REMARKS
PHOENIX        PTCLDY   103  52  18 W12       29.73R HX 100
GLENDALE       PTCLDY   102  54  19 SW8       29.75R HX 100
LUKE AFB       CLEAR     99  55  23 SW7       29.73R
DEER VALLEY    CLEAR     98  52  21 SW8       29.77R
SCOTTSDALE     CLEAR     99  51  19 W3        29.79R
MESA-GATEWAY   PTCLDY    99  54  22 N8        29.79R
CHANDLER       PTCLDY   100  52  19 W7        29.76R
$$

AZZ027-028-280400-
SOUTHWEST MARICOPA COUNTY AND PINAL COUNTY

CITY           SKY/WX    TMP DP  RH WIND       PRES   REMARKS
CASA GRANDE    PTCLDY   100  54  20 W5        29.77R
$$

AZZ503-504-507>509-280400-
SOUTHEAST ARIZONA

CITY           SKY/WX    TMP DP  RH WIND       PRES   REMARKS
TUCSON         CLOUDY    95  52  23 W10       29.90R
DAVIS-MONTHAN  MOCLDY    94  54  25 NW10      29.89R
RYAN FIELD     CLEAR     97  54  23 N8        29.88R
NOGALES        CLOUDY    77  61  57 SW3       30.03R
SIERRA VISTA   CLOUDY    80  56  44 W14       30.08R
SAFFORD        PTCLDY    93  47  20 NW15      29.88R
$$

AZZ020-021-025-026-031-280400-
SOUTHWEST ARIZONA

CITY           SKY/WX    TMP DP  RH WIND       PRES   REMARKS
YUMA           NOT AVBL
$$

CAZ031-033-041-043-047-048-061-280400-
SOUTHERN CALIFORNIA

CITY           SKY/WX    TMP DP  RH WIND       PRES   REMARKS
DOWNTOWN L.A.  CLEAR     71  63  75 VRB6      29.87R
L.A. AIRPORT   PTCLDY    69  64  84 W12       29.89R
SAN DIEGO      PTCLDY    70  59  68 NW7       29.90R
BURBANK        CLEAR     74  58  57 S9        29.88R
ONTARIO        CLEAR     77  57  50 W10       29.87R
RIVERSIDE      CLEAR     77  58  51 W8        29.87R
PALM SPRINGS   CLEAR     95  52  23 NW15      29.72R
EL CENTRO NAS  CLEAR     97  39  13 W13       29.69R
IMPERIAL       CLEAR     99  34  10 SW9       29.67R
BLYTHE         CLEAR    100  29   8 SW10      29.69R
$$

NVZ020-UTZ003-280400-
SOUTHERN NEVADA-UTAH

CITY           SKY/WX    TMP DP  RH WIND       PRES   REMARKS
LAS VEGAS      NOT AVBL
SALT LAKE CITY PTCLDY    71  41  33 N9        30.07R
$$

NMZ009-TXZ055-280400-
NEW MEXICO-WEST TEXAS

CITY           SKY/WX    TMP DP  RH WIND       PRES   REMARKS
ALBUQUERQUE    CLOUDY    86  49  27 S9        30.05R
EL PASO        CLOUDY    85  55  35 SE13      29.98R
$$


........................KEY........................
SKY/WX - SKY CONDITION/WEATHER
TMP    - TEMPERATURE IN FAHRENHEIT
DP     - DEW POINT IN FAHRENHEIT
RH     - RELATIVE HUMIDITY IN PERCENT
WIND   - DIRECTION AND SPEED IN MILES PER HOUR (MPH)
VRB    - VARIABLE WIND DIRECTION
PRES   - MEAN SEA LEVEL PRESSURE IN INCHES OF MERCURY
         F - FALLING PRESSURE   R - RISING PRESSURE
         S - STEADY PRESSURE
VSB    - VISIBILITY IN MILES
HX     - HEAT INDEX IN FAHRENHEIT
WCI    - WIND CHILL INDEX IN FAHRENHEIT
TC     - TEMPERATURE IN CELSIUS WHICH IS ALSO KNOWN AS
         TEMPERATURE IN CENTIGRADE
AFB    - AIR FORCE BASE
         LUKE AFB IS LUKE AIR FORCE BASE
         DAVIS-MONTHAN IS DAVIS-MONTHAN AIR FORCE BASE
NAS    - NAVAL AIR STATION
         EL CENTRO NAS IS EL CENTRO NAVAL AIR STATION
N/A    - NOT AVAILABLE



USA.gov is the U.S. government's official web portal to all federal, state and local government web resources and services.